Terminal Aerodrome Forecast
Issued by NWS

Home | Current Version | Previous Version | Text Only | Print | Product List | Glossary On
Versions: 1 2 3 4 5 6 7 8 9 10 11 12 13 14 15 16 17 18 19 20 21 22 23 24 25 26 27 28 29
000
FTUS41 KGYX 260500
TAFLEB
TAF
KLEB 260520Z 2606/2706 VRB03KT 6SM HZ SCT250
     FM260700 00000KT 2SM BR SCT001
     FM261200 22006KT P6SM BKN200=

USA.gov is the U.S. government's official web portal to all federal, state and local government web resources and services.